Year,Month,Day,Hour,Minute,Value (Times are PST for insolation in W/m^2)
2010,08,27,00,00,0.00
2010,08,27,00,01,0.00
2010,08,27,00,02,0.00
2010,08,27,00,03,0.00
2010,08,27,00,04,0.00
2010,08,27,00,05,0.00
2010,08,27,00,06,0.00
2010,08,27,00,07,0.00
2010,08,27,00,08,0.00
2010,08,27,00,09,0.00
2010,08,27,00,10,0.00
2010,08,27,00,11,0.00
2010,08,27,00,12,0.00
2010,08,27,00,13,0.00
2010,08,27,00,14,0.00
2010,08,27,00,15,0.00
2010,08,27,00,16,0.00
2010,08,27,00,17,0.00
2010,08,27,00,18,0.00
2010,08,27,00,19,0.00
2010,08,27,00,20,0.00
2010,08,27,00,21,0.00
2010,08,27,00,22,0.00
2010,08,27,00,23,0.00
2010,08,27,00,24,0.00
2010,08,27,00,25,0.00
2010,08,27,00,26,0.00
2010,08,27,00,27,0.00
2010,08,27,00,28,0.00
2010,08,27,00,29,0.00
2010,08,27,00,30,0.00
2010,08,27,00,31,0.00
2010,08,27,00,32,0.00
2010,08,27,00,33,0.00
2010,08,27,00,34,0.00
2010,08,27,00,35,0.00
2010,08,27,00,36,0.00
2010,08,27,00,37,0.00
2010,08,27,00,38,0.00
2010,08,27,00,39,0.00
2010,08,27,00,40,0.00
2010,08,27,00,41,0.00
2010,08,27,00,42,0.00
2010,08,27,00,43,0.00
2010,08,27,00,44,0.00
2010,08,27,00,45,0.00
2010,08,27,00,46,0.00
2010,08,27,00,47,0.00
2010,08,27,00,48,0.00
2010,08,27,00,49,0.00
2010,08,27,00,50,0.00
2010,08,27,00,51,0.00
2010,08,27,00,52,0.00
2010,08,27,00,53,0.00
2010,08,27,00,54,0.00
2010,08,27,00,55,0.00
2010,08,27,00,56,0.00
2010,08,27,00,57,0.00
2010,08,27,00,58,0.00
2010,08,27,00,59,0.00
2010,08,27,01,00,0.00
2010,08,27,01,01,0.00
2010,08,27,01,02,0.00
2010,08,27,01,03,0.00
2010,08,27,01,04,0.00
2010,08,27,01,05,0.00
2010,08,27,01,06,0.00
2010,08,27,01,07,0.00
2010,08,27,01,08,0.00
2010,08,27,01,09,0.00
2010,08,27,01,10,0.00
2010,08,27,01,11,0.00
2010,08,27,01,12,0.00
2010,08,27,01,13,0.00
2010,08,27,01,14,0.00
2010,08,27,01,15,0.00
2010,08,27,01,16,0.00
2010,08,27,01,17,0.00
2010,08,27,01,18,0.00
2010,08,27,01,19,0.00
2010,08,27,01,20,0.00
2010,08,27,01,21,0.00
2010,08,27,01,22,0.00
2010,08,27,01,23,0.00
2010,08,27,01,24,0.00
2010,08,27,01,25,0.00
2010,08,27,01,26,0.00
2010,08,27,01,27,0.00
2010,08,27,01,28,0.00
2010,08,27,01,29,0.00
2010,08,27,01,30,0.00
2010,08,27,01,31,0.00
2010,08,27,01,32,0.00
2010,08,27,01,33,0.00
2010,08,27,01,34,0.00
2010,08,27,01,35,0.00
2010,08,27,01,36,0.00
2010,08,27,01,37,0.00
2010,08,27,01,38,0.00
2010,08,27,01,39,0.00
2010,08,27,01,40,0.00
2010,08,27,01,41,0.00
2010,08,27,01,42,0.00
2010,08,27,01,43,0.00
2010,08,27,01,44,0.00
2010,08,27,01,45,0.00
2010,08,27,01,46,0.00
2010,08,27,01,47,0.00
2010,08,27,01,48,0.00
2010,08,27,01,49,0.00
2010,08,27,01,50,0.00
2010,08,27,01,51,0.00
2010,08,27,01,52,0.00
2010,08,27,01,53,0.00
2010,08,27,01,54,0.00
2010,08,27,01,55,0.00
2010,08,27,01,56,0.00
2010,08,27,01,57,0.00
2010,08,27,01,58,0.00
2010,08,27,01,59,0.00
2010,08,27,02,00,0.00
2010,08,27,02,01,0.00
2010,08,27,02,02,0.00
2010,08,27,02,03,0.00
2010,08,27,02,04,0.00
2010,08,27,02,05,0.00
2010,08,27,02,06,0.00
2010,08,27,02,07,0.00
2010,08,27,02,08,0.00
2010,08,27,02,09,0.00
2010,08,27,02,10,0.00
2010,08,27,02,11,0.00
2010,08,27,02,12,0.00
2010,08,27,02,13,0.00
2010,08,27,02,14,0.00
2010,08,27,02,15,0.00
2010,08,27,02,16,0.00
2010,08,27,02,17,0.00
2010,08,27,02,18,0.00
2010,08,27,02,19,0.00
2010,08,27,02,20,0.00
2010,08,27,02,21,0.00
2010,08,27,02,22,0.00
2010,08,27,02,23,0.00
2010,08,27,02,24,0.00
2010,08,27,02,25,0.00
2010,08,27,02,26,0.00
2010,08,27,02,27,0.00
2010,08,27,02,28,0.00
2010,08,27,02,29,0.00
2010,08,27,02,30,0.00
2010,08,27,02,31,0.00
2010,08,27,02,32,0.00
2010,08,27,02,33,0.00
2010,08,27,02,34,0.00
2010,08,27,02,35,0.00
2010,08,27,02,36,0.00
2010,08,27,02,37,0.00
2010,08,27,02,38,0.00
2010,08,27,02,39,0.00
2010,08,27,02,40,0.00
2010,08,27,02,41,0.00
2010,08,27,02,42,0.00
2010,08,27,02,43,0.00
2010,08,27,02,44,0.00
2010,08,27,02,45,0.00
2010,08,27,02,46,0.00
2010,08,27,02,47,0.00
2010,08,27,02,48,0.00
2010,08,27,02,49,0.00
2010,08,27,02,50,0.00
2010,08,27,02,51,0.00
2010,08,27,02,52,0.00
2010,08,27,02,53,0.00
2010,08,27,02,54,0.00
2010,08,27,02,55,0.00
2010,08,27,02,56,0.00
2010,08,27,02,57,0.00
2010,08,27,02,58,0.00
2010,08,27,02,59,0.00
2010,08,27,03,00,0.00
2010,08,27,03,01,0.00
2010,08,27,03,02,0.00
2010,08,27,03,03,0.00
2010,08,27,03,04,0.00
2010,08,27,03,05,0.00
2010,08,27,03,06,0.00
2010,08,27,03,07,0.00
2010,08,27,03,08,0.00
2010,08,27,03,09,0.00
2010,08,27,03,10,0.00
2010,08,27,03,11,0.00
2010,08,27,03,12,0.00
2010,08,27,03,13,0.00
2010,08,27,03,14,0.00
2010,08,27,03,15,0.00
2010,08,27,03,16,0.00
2010,08,27,03,17,0.00
2010,08,27,03,18,0.00
2010,08,27,03,19,0.00
2010,08,27,03,20,0.00
2010,08,27,03,21,0.00
2010,08,27,03,22,0.00
2010,08,27,03,23,0.00
2010,08,27,03,24,0.00
2010,08,27,03,25,0.00
2010,08,27,03,26,0.00
2010,08,27,03,27,0.00
2010,08,27,03,28,0.00
2010,08,27,03,29,0.00
2010,08,27,03,30,0.00
2010,08,27,03,31,0.00
2010,08,27,03,32,0.00
2010,08,27,03,33,0.00
2010,08,27,03,34,0.00
2010,08,27,03,35,0.00
2010,08,27,03,36,0.00
2010,08,27,03,37,0.00
2010,08,27,03,38,0.00
2010,08,27,03,39,0.00
2010,08,27,03,40,0.00
2010,08,27,03,41,0.00
2010,08,27,03,42,0.00
2010,08,27,03,43,0.00
2010,08,27,03,44,0.00
2010,08,27,03,45,0.00
2010,08,27,03,46,0.00
2010,08,27,03,47,0.00
2010,08,27,03,48,0.00
2010,08,27,03,49,0.00
2010,08,27,03,50,0.00
2010,08,27,03,51,0.00
2010,08,27,03,52,0.00
2010,08,27,03,53,0.00
2010,08,27,03,54,0.00
2010,08,27,03,55,0.00
2010,08,27,03,56,0.00
2010,08,27,03,57,0.00
2010,08,27,03,58,0.00
2010,08,27,03,59,0.00
2010,08,27,04,00,0.00
2010,08,27,04,01,0.00
2010,08,27,04,02,0.00
2010,08,27,04,03,0.00
2010,08,27,04,04,0.00
2010,08,27,04,05,0.00
2010,08,27,04,06,0.00
2010,08,27,04,07,0.00
2010,08,27,04,08,0.00
2010,08,27,04,09,0.00
2010,08,27,04,10,0.00
2010,08,27,04,11,0.00
2010,08,27,04,12,0.00
2010,08,27,04,13,0.00
2010,08,27,04,14,0.00
2010,08,27,04,15,0.00
2010,08,27,04,16,0.00
2010,08,27,04,17,0.00
2010,08,27,04,18,0.00
2010,08,27,04,19,0.00
2010,08,27,04,20,0.00
2010,08,27,04,21,0.00
2010,08,27,04,22,0.00
2010,08,27,04,23,0.00
2010,08,27,04,24,0.00
2010,08,27,04,25,0.00
2010,08,27,04,26,0.00
2010,08,27,04,27,0.00
2010,08,27,04,28,0.00
2010,08,27,04,29,0.00
2010,08,27,04,30,0.00
2010,08,27,04,31,0.00
2010,08,27,04,32,0.00
2010,08,27,04,33,0.00
2010,08,27,04,34,0.00
2010,08,27,04,35,0.00
2010,08,27,04,36,0.00
2010,08,27,04,37,0.00
2010,08,27,04,38,0.00
2010,08,27,04,39,0.00
2010,08,27,04,40,0.00
2010,08,27,04,41,0.00
2010,08,27,04,42,0.00
2010,08,27,04,43,0.00
2010,08,27,04,44,0.00
2010,08,27,04,45,0.00
2010,08,27,04,46,0.00
2010,08,27,04,47,0.00
2010,08,27,04,48,0.00
2010,08,27,04,49,0.00
2010,08,27,04,50,0.00
2010,08,27,04,51,0.00
2010,08,27,04,52,0.00
2010,08,27,04,53,0.00
2010,08,27,04,54,0.00
2010,08,27,04,55,0.00
2010,08,27,04,56,0.00
2010,08,27,04,57,0.00
2010,08,27,04,58,0.00
2010,08,27,04,59,0.00
2010,08,27,05,00,0.00
2010,08,27,05,01,0.00
2010,08,27,05,02,0.00
2010,08,27,05,03,0.00
2010,08,27,05,04,0.00
2010,08,27,05,05,0.00
2010,08,27,05,06,0.00
2010,08,27,05,07,0.00
2010,08,27,05,08,0.00
2010,08,27,05,09,0.00
2010,08,27,05,10,0.00
2010,08,27,05,11,0.00
2010,08,27,05,12,0.00
2010,08,27,05,13,0.00
2010,08,27,05,14,0.00
2010,08,27,05,15,0.00
2010,08,27,05,16,0.00
2010,08,27,05,17,0.00
2010,08,27,05,18,0.00
2010,08,27,05,19,0.00
2010,08,27,05,20,0.00
2010,08,27,05,21,0.00
2010,08,27,05,22,0.00
2010,08,27,05,23,0.00
2010,08,27,05,24,0.00
2010,08,27,05,25,0.00
2010,08,27,05,26,0.00
2010,08,27,05,27,0.00
2010,08,27,05,28,0.00
2010,08,27,05,29,0.00
2010,08,27,05,30,0.00
2010,08,27,05,31,0.00
2010,08,27,05,32,0.00
2010,08,27,05,33,0.00
2010,08,27,05,34,0.00
2010,08,27,05,35,0.00
2010,08,27,05,36,0.00
2010,08,27,05,37,0.00
2010,08,27,05,38,0.00
2010,08,27,05,39,0.00
2010,08,27,05,40,0.00
2010,08,27,05,41,0.00
2010,08,27,05,42,0.00
2010,08,27,05,43,0.00
2010,08,27,05,44,0.00
2010,08,27,05,45,0.00
2010,08,27,05,46,0.00
2010,08,27,05,47,0.00
2010,08,27,05,48,0.00
2010,08,27,05,49,0.00
2010,08,27,05,50,0.00
2010,08,27,05,51,0.00
2010,08,27,05,52,0.00
2010,08,27,05,53,0.00
2010,08,27,05,54,0.00
2010,08,27,05,55,0.00
2010,08,27,05,56,0.00
2010,08,27,05,57,0.00
2010,08,27,05,58,0.00
2010,08,27,05,59,0.00
2010,08,27,06,00,0.00
2010,08,27,06,01,0.00
2010,08,27,06,02,0.00
2010,08,27,06,03,0.00
2010,08,27,06,04,0.00
2010,08,27,06,05,0.00
2010,08,27,06,06,0.00
2010,08,27,06,07,0.00
2010,08,27,06,08,0.00
2010,08,27,06,09,0.00
2010,08,27,06,10,0.00
2010,08,27,06,11,0.00
2010,08,27,06,12,0.00
2010,08,27,06,13,0.00
2010,08,27,06,14,0.00
2010,08,27,06,15,0.00
2010,08,27,06,16,0.00
2010,08,27,06,17,0.00
2010,08,27,06,18,0.00
2010,08,27,06,19,0.00
2010,08,27,06,20,0.00
2010,08,27,06,21,0.00
2010,08,27,06,22,0.00
2010,08,27,06,23,0.00
2010,08,27,06,24,0.00
2010,08,27,06,25,0.00
2010,08,27,06,26,0.00
2010,08,27,06,27,0.00
2010,08,27,06,28,0.00
2010,08,27,06,29,0.00
2010,08,27,06,30,0.00
2010,08,27,06,31,0.00
2010,08,27,06,32,0.00
2010,08,27,06,33,0.00
2010,08,27,06,34,0.00
2010,08,27,06,35,0.00
2010,08,27,06,36,0.00
2010,08,27,06,37,0.00
2010,08,27,06,38,0.00
2010,08,27,06,39,0.00
2010,08,27,06,40,0.00
2010,08,27,06,41,0.00
2010,08,27,06,42,0.00
2010,08,27,06,43,0.00
2010,08,27,06,44,0.00
2010,08,27,06,45,0.00
2010,08,27,06,46,0.00
2010,08,27,06,47,0.00
2010,08,27,06,48,0.00
2010,08,27,06,49,0.00
2010,08,27,06,50,0.00
2010,08,27,06,51,0.00
2010,08,27,06,52,4.70
2010,08,27,06,53,5.00
2010,08,27,06,54,5.00
2010,08,27,06,55,5.00
2010,08,27,06,56,6.30
2010,08,27,06,57,7.00
2010,08,27,06,58,7.00
2010,08,27,06,59,7.00
2010,08,27,07,00,8.10
2010,08,27,07,01,9.00
2010,08,27,07,02,9.00
2010,08,27,07,03,9.00
2010,08,27,07,04,9.60
2010,08,27,07,05,11.00
2010,08,27,07,06,11.00
2010,08,27,07,07,11.00
2010,08,27,07,08,11.20
2010,08,27,07,09,12.00
2010,08,27,07,10,12.00
2010,08,27,07,11,12.00
2010,08,27,07,12,12.00
2010,08,27,07,13,19.00
2010,08,27,07,14,19.00
2010,08,27,07,15,19.00
2010,08,27,07,16,19.00
2010,08,27,07,17,22.80
2010,08,27,07,18,23.00
2010,08,27,07,19,23.00
2010,08,27,07,20,23.00
2010,08,27,07,21,27.90
2010,08,27,07,22,30.00
2010,08,27,07,23,30.00
2010,08,27,07,24,30.00
2010,08,27,07,25,33.30
2010,08,27,07,26,37.00
2010,08,27,07,27,37.00
2010,08,27,07,28,37.00
2010,08,27,07,29,39.50
2010,08,27,07,30,44.00
2010,08,27,07,31,44.00
2010,08,27,07,32,44.00
2010,08,27,07,33,45.20
2010,08,27,07,34,51.00
2010,08,27,07,35,51.00
2010,08,27,07,36,51.00
2010,08,27,07,37,51.00
2010,08,27,07,38,42.00
2010,08,27,07,39,42.00
2010,08,27,07,40,42.00
2010,08,27,07,41,42.00
2010,08,27,07,42,42.00
2010,08,27,07,43,42.00
2010,08,27,07,44,42.00
2010,08,27,07,45,42.00
2010,08,27,07,46,45.60
2010,08,27,07,47,48.00
2010,08,27,07,48,48.00
2010,08,27,07,49,48.00
2010,08,27,07,50,47.10
2010,08,27,07,51,46.00
2010,08,27,07,52,46.00
2010,08,27,07,53,46.00
2010,08,27,07,54,46.00
2010,08,27,07,55,46.00
2010,08,27,07,56,46.00
2010,08,27,07,57,46.00
2010,08,27,07,58,46.50
2010,08,27,07,59,49.00
2010,08,27,08,00,49.00
2010,08,27,08,01,49.00
2010,08,27,08,02,49.00
2010,08,27,08,03,67.40
2010,08,27,08,04,77.10
2010,08,27,08,05,79.90
2010,08,27,08,06,82.30
2010,08,27,08,07,83.00
2010,08,27,08,08,85.70
2010,08,27,08,09,84.00
2010,08,27,08,10,83.50
2010,08,27,08,11,81.70
2010,08,27,08,12,79.40
2010,08,27,08,13,79.30
2010,08,27,08,14,81.00
2010,08,27,08,15,81.90
2010,08,27,08,16,83.00
2010,08,27,08,17,83.80
2010,08,27,08,18,84.00
2010,08,27,08,19,83.70
2010,08,27,08,20,83.40
2010,08,27,08,21,85.30
2010,08,27,08,22,87.50
2010,08,27,08,23,90.00
2010,08,27,08,24,91.60
2010,08,27,08,25,93.00
2010,08,27,08,26,94.20
2010,08,27,08,27,96.60
2010,08,27,08,28,97.40
2010,08,27,08,29,99.30
2010,08,27,08,30,100.90
2010,08,27,08,31,103.30
2010,08,27,08,32,104.00
2010,08,27,08,33,107.40
2010,08,27,08,34,109.60
2010,08,27,08,35,112.30
2010,08,27,08,36,115.30
2010,08,27,08,37,117.60
2010,08,27,08,38,118.00
2010,08,27,08,39,118.60
2010,08,27,08,40,120.50
2010,08,27,08,41,122.30
2010,08,27,08,42,124.60
2010,08,27,08,43,127.10
2010,08,27,08,44,128.60
2010,08,27,08,45,130.90
2010,08,27,08,46,133.30
2010,08,27,08,47,134.80
2010,08,27,08,48,135.00
2010,08,27,08,49,135.00
2010,08,27,08,50,135.00
2010,08,27,08,51,135.00
2010,08,27,08,52,136.60
2010,08,27,08,53,139.70
2010,08,27,08,54,144.10
2010,08,27,08,55,148.60
2010,08,27,08,56,154.90
2010,08,27,08,57,157.80
2010,08,27,08,58,160.50
2010,08,27,08,59,164.90
2010,08,27,09,00,168.80
2010,08,27,09,01,174.30
2010,08,27,09,02,182.60
2010,08,27,09,03,194.90
2010,08,27,09,04,212.20
2010,08,27,09,05,248.40
2010,08,27,09,06,275.50
2010,08,27,09,07,278.00
2010,08,27,09,08,296.80
2010,08,27,09,09,318.00
2010,08,27,09,10,318.00
2010,08,27,09,11,299.60
2010,08,27,09,12,261.20
2010,08,27,09,13,248.00
2010,08,27,09,14,267.50
2010,08,27,09,15,303.00
2010,08,27,09,16,313.50
2010,08,27,09,17,307.40
2010,08,27,09,18,282.00
2010,08,27,09,19,300.30
2010,08,27,09,20,343.00
2010,08,27,09,21,398.10
2010,08,27,09,22,421.00
2010,08,27,09,23,279.20
2010,08,27,09,24,284.40
2010,08,27,09,25,268.70
2010,08,27,09,26,252.30
2010,08,27,09,27,264.40
2010,08,27,09,28,233.40
2010,08,27,09,29,242.80
2010,08,27,09,30,255.00
2010,08,27,09,31,269.10
2010,08,27,09,32,251.00
2010,08,27,09,33,230.80
2010,08,27,09,34,230.60
2010,08,27,09,35,232.00
2010,08,27,09,36,238.90
2010,08,27,09,37,238.60
2010,08,27,09,38,240.10
2010,08,27,09,39,246.50
2010,08,27,09,40,253.50
2010,08,27,09,41,261.50
2010,08,27,09,42,270.60
2010,08,27,09,43,280.90
2010,08,27,09,44,274.40
2010,08,27,09,45,271.00
2010,08,27,09,46,276.40
2010,08,27,09,47,281.80
2010,08,27,09,48,297.40
2010,08,27,09,49,309.40
2010,08,27,09,50,318.50
2010,08,27,09,51,355.00
2010,08,27,09,52,368.00
2010,08,27,09,53,323.20
2010,08,27,09,54,308.90
2010,08,27,09,55,305.80
2010,08,27,09,56,324.20
2010,08,27,09,57,314.40
2010,08,27,09,58,303.80
2010,08,27,09,59,301.60
2010,08,27,10,00,300.90
2010,08,27,10,01,298.40
2010,08,27,10,02,291.40
2010,08,27,10,03,288.10
2010,08,27,10,04,281.90
2010,08,27,10,05,280.00
2010,08,27,10,06,289.30
2010,08,27,10,07,328.80
2010,08,27,10,08,355.00
2010,08,27,10,09,405.90
2010,08,27,10,10,533.00
2010,08,27,10,11,533.00
2010,08,27,10,12,533.00
2010,08,27,10,13,533.00
2010,08,27,10,14,584.90
2010,08,27,10,15,708.40
2010,08,27,10,16,681.10
2010,08,27,10,17,625.80
2010,08,27,10,18,607.50
2010,08,27,10,19,607.00
2010,08,27,10,20,607.00
2010,08,27,10,21,607.00
2010,08,27,10,22,559.00
2010,08,27,10,23,586.00
2010,08,27,10,24,586.00
2010,08,27,10,25,586.00
2010,08,27,10,26,586.00
2010,08,27,10,27,586.00
2010,08,27,10,28,741.00
2010,08,27,10,29,651.00
2010,08,27,10,30,442.50
2010,08,27,10,31,414.30
2010,08,27,10,32,396.80
2010,08,27,10,33,389.00
2010,08,27,10,34,390.10
2010,08,27,10,35,397.20
2010,08,27,10,36,393.40
2010,08,27,10,37,403.20
2010,08,27,10,38,419.30
2010,08,27,10,39,443.50
2010,08,27,10,40,457.00
2010,08,27,10,41,454.60
2010,08,27,10,42,463.60
2010,08,27,10,43,435.10
2010,08,27,10,44,435.70
2010,08,27,10,45,449.00
2010,08,27,10,46,447.70
2010,08,27,10,47,436.40
2010,08,27,10,48,436.10
2010,08,27,10,49,429.00
2010,08,27,10,50,436.00
2010,08,27,10,51,515.30
2010,08,27,10,52,519.60
2010,08,27,10,53,513.70
2010,08,27,10,54,531.00
2010,08,27,10,55,542.20
2010,08,27,10,56,526.10
2010,08,27,10,57,491.60
2010,08,27,10,58,487.00
2010,08,27,10,59,488.80
2010,08,27,11,00,493.50
2010,08,27,11,01,468.00
2010,08,27,11,02,455.60
2010,08,27,11,03,416.50
2010,08,27,11,04,389.20
2010,08,27,11,05,399.30
2010,08,27,11,06,405.90
2010,08,27,11,07,401.00
2010,08,27,11,08,371.00
2010,08,27,11,09,368.00
2010,08,27,11,10,374.00
2010,08,27,11,11,370.80
2010,08,27,11,12,371.00
2010,08,27,11,13,368.90
2010,08,27,11,14,367.10
2010,08,27,11,15,376.10
2010,08,27,11,16,380.00
2010,08,27,11,17,383.20
2010,08,27,11,18,390.00
2010,08,27,11,19,395.30
2010,08,27,11,20,396.50
2010,08,27,11,21,401.60
2010,08,27,11,22,399.60
2010,08,27,11,23,395.70
2010,08,27,11,24,397.30
2010,08,27,11,25,408.30
2010,08,27,11,26,418.90
2010,08,27,11,27,410.60
2010,08,27,11,28,414.10
2010,08,27,11,29,425.40
2010,08,27,11,30,429.00
2010,08,27,11,31,443.00
2010,08,27,11,32,464.00
2010,08,27,11,33,439.20
2010,08,27,11,34,415.10
2010,08,27,11,35,403.80
2010,08,27,11,36,401.00
2010,08,27,11,37,391.40
2010,08,27,11,38,393.50
2010,08,27,11,39,368.00
2010,08,27,11,40,354.30
2010,08,27,11,41,343.90
2010,08,27,11,42,349.60
2010,08,27,11,43,335.50
2010,08,27,11,44,343.10
2010,08,27,11,45,362.00
2010,08,27,11,46,362.00
2010,08,27,11,47,362.00
2010,08,27,11,48,412.00
2010,08,27,11,49,686.70
2010,08,27,11,50,656.00
2010,08,27,11,51,642.00
2010,08,27,11,52,642.00
2010,08,27,11,53,642.00
2010,08,27,11,54,642.00
2010,08,27,11,55,686.70
2010,08,27,11,56,718.00
2010,08,27,11,57,718.00
2010,08,27,11,58,534.20
2010,08,27,11,59,511.50
2010,08,27,12,00,529.50
2010,08,27,12,01,521.90
2010,08,27,12,02,517.00
2010,08,27,12,03,517.00
2010,08,27,12,04,577.50
2010,08,27,12,05,690.00
2010,08,27,12,06,529.60
2010,08,27,12,07,436.00
2010,08,27,12,08,436.00
2010,08,27,12,09,436.00
2010,08,27,12,10,525.00
2010,08,27,12,11,614.00
2010,08,27,12,12,1040.40
2010,08,27,12,13,1152.00
2010,08,27,12,14,1152.00
2010,08,27,12,15,802.00
2010,08,27,12,16,450.00
2010,08,27,12,17,449.00
2010,08,27,12,18,623.80
2010,08,27,12,19,633.00
2010,08,27,12,20,633.00
2010,08,27,12,21,633.00
2010,08,27,12,22,633.00
2010,08,27,12,23,633.00
2010,08,27,12,24,633.00
2010,08,27,12,25,633.00
2010,08,27,12,26,633.00
2010,08,27,12,27,633.00
2010,08,27,12,28,523.00
2010,08,27,12,29,548.10
2010,08,27,12,30,584.00
2010,08,27,12,31,526.80
2010,08,27,12,32,507.00
2010,08,27,12,33,499.20
2010,08,27,12,34,461.80
2010,08,27,12,35,452.00
2010,08,27,12,36,446.20
2010,08,27,12,37,439.00
2010,08,27,12,38,439.40
2010,08,27,12,39,439.60
2010,08,27,12,40,416.00
2010,08,27,12,41,400.80
2010,08,27,12,42,387.60
2010,08,27,12,43,381.20
2010,08,27,12,44,380.50
2010,08,27,12,45,385.50
2010,08,27,12,46,391.50
2010,08,27,12,47,381.20
2010,08,27,12,48,360.20
2010,08,27,12,49,347.30
2010,08,27,12,50,339.50
2010,08,27,12,51,339.30
2010,08,27,12,52,340.00
2010,08,27,12,53,341.00
2010,08,27,12,54,346.30
2010,08,27,12,55,354.50
2010,08,27,12,56,350.40
2010,08,27,12,57,334.50
2010,08,27,12,58,328.60
2010,08,27,12,59,328.20
2010,08,27,13,00,332.00
2010,08,27,13,01,336.20
2010,08,27,13,02,341.00
2010,08,27,13,03,345.70
2010,08,27,13,04,349.60
2010,08,27,13,05,353.50
2010,08,27,13,06,356.30
2010,08,27,13,07,360.40
2010,08,27,13,08,363.50
2010,08,27,13,09,372.90
2010,08,27,13,10,384.10
2010,08,27,13,11,389.00
2010,08,27,13,12,392.00
2010,08,27,13,13,384.20
2010,08,27,13,14,379.00
2010,08,27,13,15,377.50
2010,08,27,13,16,386.50
2010,08,27,13,17,416.50
2010,08,27,13,18,474.80
2010,08,27,13,19,516.00
2010,08,27,13,20,516.00
2010,08,27,13,21,516.00
2010,08,27,13,22,516.00
2010,08,27,13,23,475.80
2010,08,27,13,24,457.80
2010,08,27,13,25,456.00
2010,08,27,13,26,456.00
2010,08,27,13,27,428.00
2010,08,27,13,28,415.40
2010,08,27,13,29,403.50
2010,08,27,13,30,397.50
2010,08,27,13,31,401.90
2010,08,27,13,32,425.40
2010,08,27,13,33,422.40
2010,08,27,13,34,424.00
2010,08,27,13,35,444.50
2010,08,27,13,36,442.30
2010,08,27,13,37,463.00
2010,08,27,13,38,498.60
2010,08,27,13,39,507.40
2010,08,27,13,40,509.50
2010,08,27,13,41,510.80
2010,08,27,13,42,512.00
2010,08,27,13,43,560.00
2010,08,27,13,44,560.00
2010,08,27,13,45,876.50
2010,08,27,13,46,1193.00
2010,08,27,13,47,1193.00
2010,08,27,13,48,1193.00
2010,08,27,13,49,1193.00
2010,08,27,13,50,810.10
2010,08,27,13,51,542.00
2010,08,27,13,52,542.00
2010,08,27,13,53,542.00
2010,08,27,13,54,542.00
2010,08,27,13,55,542.00
2010,08,27,13,56,542.00
2010,08,27,13,57,1038.00
2010,08,27,13,58,1048.60
2010,08,27,13,59,1081.90
2010,08,27,14,00,1109.00
2010,08,27,14,01,1109.00
2010,08,27,14,02,491.60
2010,08,27,14,03,356.30
2010,08,27,14,04,336.10
2010,08,27,14,05,326.10
2010,08,27,14,06,322.50
2010,08,27,14,07,320.30
2010,08,27,14,08,317.50
2010,08,27,14,09,313.20
2010,08,27,14,10,306.50
2010,08,27,14,11,297.60
2010,08,27,14,12,298.50
2010,08,27,14,13,307.00
2010,08,27,14,14,312.60
2010,08,27,14,15,316.60
2010,08,27,14,16,320.60
2010,08,27,14,17,322.00
2010,08,27,14,18,320.30
2010,08,27,14,19,310.90
2010,08,27,14,20,305.60
2010,08,27,14,21,304.00
2010,08,27,14,22,310.00
2010,08,27,14,23,316.00
2010,08,27,14,24,325.40
2010,08,27,14,25,341.50
2010,08,27,14,26,350.00
2010,08,27,14,27,350.00
2010,08,27,14,28,364.60
2010,08,27,14,29,374.60
2010,08,27,14,30,386.00
2010,08,27,14,31,395.70
2010,08,27,14,32,400.70
2010,08,27,14,33,433.20
2010,08,27,14,34,393.50
2010,08,27,14,35,384.10
2010,08,27,14,36,374.50
2010,08,27,14,37,354.70
2010,08,27,14,38,336.90
2010,08,27,14,39,324.90
2010,08,27,14,40,320.80
2010,08,27,14,41,322.60
2010,08,27,14,42,317.90
2010,08,27,14,43,317.00
2010,08,27,14,44,314.50
2010,08,27,14,45,306.50
2010,08,27,14,46,303.80
2010,08,27,14,47,304.00
2010,08,27,14,48,304.00
2010,08,27,14,49,505.60
2010,08,27,14,50,872.00
2010,08,27,14,51,840.20
2010,08,27,14,52,802.00
2010,08,27,14,53,778.10
2010,08,27,14,54,796.30
2010,08,27,14,55,810.90
2010,08,27,14,56,790.90
2010,08,27,14,57,787.00
2010,08,27,14,58,787.00
2010,08,27,14,59,778.20
2010,08,27,15,00,762.00
2010,08,27,15,01,764.00
2010,08,27,15,02,768.20
2010,08,27,15,03,759.80
2010,08,27,15,04,741.50
2010,08,27,15,05,733.20
2010,08,27,15,06,733.40
2010,08,27,15,07,722.10
2010,08,27,15,08,703.40
2010,08,27,15,09,698.20
2010,08,27,15,10,695.00
2010,08,27,15,11,709.80
2010,08,27,15,12,728.70
2010,08,27,15,13,755.00
2010,08,27,15,14,755.00
2010,08,27,15,15,759.10
2010,08,27,15,16,762.00
2010,08,27,15,17,762.00
2010,08,27,15,18,762.00
2010,08,27,15,19,762.00
2010,08,27,15,20,762.00
2010,08,27,15,21,598.70
2010,08,27,15,22,517.00
2010,08,27,15,23,478.10
2010,08,27,15,24,318.40
2010,08,27,15,25,330.30
2010,08,27,15,26,346.30
2010,08,27,15,27,365.60
2010,08,27,15,28,368.00
2010,08,27,15,29,564.80
2010,08,27,15,30,826.00
2010,08,27,15,31,787.10
2010,08,27,15,32,745.30
2010,08,27,15,33,780.00
2010,08,27,15,34,776.00
2010,08,27,15,35,776.00
2010,08,27,15,36,737.70
2010,08,27,15,37,713.60
2010,08,27,15,38,703.00
2010,08,27,15,39,682.60
2010,08,27,15,40,665.40
2010,08,27,15,41,669.80
2010,08,27,15,42,702.00
2010,08,27,15,43,715.30
2010,08,27,15,44,724.70
2010,08,27,15,45,728.50
2010,08,27,15,46,740.30
2010,08,27,15,47,757.00
2010,08,27,15,48,768.70
2010,08,27,15,49,781.80
2010,08,27,15,50,791.50
2010,08,27,15,51,789.70
2010,08,27,15,52,773.10
2010,08,27,15,53,752.40
2010,08,27,15,54,734.00
2010,08,27,15,55,734.00
2010,08,27,15,56,734.00
2010,08,27,15,57,734.00
2010,08,27,15,58,736.20
2010,08,27,15,59,741.60
2010,08,27,16,00,740.90
2010,08,27,16,01,739.00
2010,08,27,16,02,735.60
2010,08,27,16,03,734.00
2010,08,27,16,04,734.00
2010,08,27,16,05,704.60
2010,08,27,16,06,700.10
2010,08,27,16,07,707.00
2010,08,27,16,08,537.00
2010,08,27,16,09,452.60
2010,08,27,16,10,296.00
2010,08,27,16,11,231.60
2010,08,27,16,12,199.00
2010,08,27,16,13,201.20
2010,08,27,16,14,201.60
2010,08,27,16,15,201.60
2010,08,27,16,16,197.90
2010,08,27,16,17,192.80
2010,08,27,16,18,190.40
2010,08,27,16,19,193.10
2010,08,27,16,20,192.20
2010,08,27,16,21,185.90
2010,08,27,16,22,183.00
2010,08,27,16,23,177.60
2010,08,27,16,24,170.90
2010,08,27,16,25,166.50
2010,08,27,16,26,161.20
2010,08,27,16,27,158.40
2010,08,27,16,28,162.10
2010,08,27,16,29,185.60
2010,08,27,16,30,200.50
2010,08,27,16,31,194.90
2010,08,27,16,32,159.60
2010,08,27,16,33,139.80
2010,08,27,16,34,133.90
2010,08,27,16,35,132.00
2010,08,27,16,36,133.60
2010,08,27,16,37,137.20
2010,08,27,16,38,141.40
2010,08,27,16,39,145.40
2010,08,27,16,40,150.50
2010,08,27,16,41,155.80
2010,08,27,16,42,160.30
2010,08,27,16,43,166.40
2010,08,27,16,44,171.40
2010,08,27,16,45,171.40
2010,08,27,16,46,169.60
2010,08,27,16,47,167.50
2010,08,27,16,48,171.20
2010,08,27,16,49,172.80
2010,08,27,16,50,188.70
2010,08,27,16,51,180.10
2010,08,27,16,52,171.00
2010,08,27,16,53,169.00
2010,08,27,16,54,167.40
2010,08,27,16,55,164.50
2010,08,27,16,56,164.00
2010,08,27,16,57,164.00
2010,08,27,16,58,159.60
2010,08,27,16,59,156.00
2010,08,27,17,00,151.90
2010,08,27,17,01,150.20
2010,08,27,17,02,150.10
2010,08,27,17,03,154.00
2010,08,27,17,04,161.70
2010,08,27,17,05,173.50
2010,08,27,17,06,185.00
2010,08,27,17,07,207.10
2010,08,27,17,08,199.20
2010,08,27,17,09,191.50
2010,08,27,17,10,185.50
2010,08,27,17,11,178.90
2010,08,27,17,12,176.30
2010,08,27,17,13,176.50
2010,08,27,17,14,179.20